N5KR Weather Reports


time (UTC)temp
F
wind
direction
speed
knots
gust
knots
rain 1hr
in
rain 24hr
in
rain mn
in
humidity
%
barometer
mb
20260509054506 71 291 0.9 2.6 0.00 0.66 0.00 83 1011.2
20260509053507 71 293 0.0 2.6 0.00 0.66 0.00 82 1011.4
20260509053007 71 293 0.0 0.0 0.00 0.66 0.00 82 1011.3
20260509052506 71 293 0.0 0.0 0.00 0.66 0.00 81 1011.3
20260509051506 71 328 0.9 1.7 0.00 0.66 0.00 81 1012.2
20260509051006 71 344 0.9 6.1 0.00 0.66 0.00 81 1012.2
20260509050507 71 346 2.6 7.8 0.00 0.66 0.00 82 1011.7
20260509050006 71 262 0.0 2.6 0.00 0.66 0.00 81 1011.2
20260509045506 71 261 0.0 1.7 0.00 0.66 0.66 81 1010.8
20260509045006 71 190 1.7 5.2 0.00 0.66 0.66 81 1010.6
20260509044506 71 180 0.0 0.0 0.00 0.66 0.66 80 1010.4
20260509044006 71 180 0.9 5.2 0.00 0.66 0.66 80 1010.3
20260509043506 71 181 2.6 7.0 0.00 0.66 0.66 80 1010.1
20260509042506 72 188 4.3 7.8 0.00 0.66 0.66 79 1010.7
20260509042006 72 177 1.7 7.0 0.00 0.66 0.66 79 1010.5
20260509041506 72 170 2.6 6.1 0.00 0.66 0.66 78 1010.7
20260509041006 72 175 1.7 7.8 0.00 0.66 0.66 78 1010.4
20260509040506 72 166 5.2 10.4 0.00 0.66 0.66 78 1010.2
20260509040006 72 168 5.2 10.4 0.00 0.66 0.66 78 1010.4
20260509035007 72 158 2.6 6.1 0.00 0.66 0.66 78 1010.6
20260509034506 72 161 2.6 6.1 0.00 0.66 0.66 78 1011.1
20260509034006 73 155 0.0 0.0 0.00 0.66 0.66 78 1011.5
20260509033506 72 155 0.0 0.0 0.00 0.66 0.66 78 1011.4
20260509032506 72 155 0.0 1.7 0.00 0.66 0.66 78 1010.9
20260509032007 72 155 0.9 2.6 0.00 0.66 0.66 78 1010.8
20260509031506 72 155 0.0 0.0 0.00 0.66 0.66 78 1010.9
20260509031006 72 155 0.0 2.6 0.00 0.66 0.66 78 1010.8
20260509030506 72 155 1.7 2.6 0.00 0.66 0.66 78 1010.9
20260509030006 72 105 0.9 4.3 0.00 0.66 0.66 78 1010.9
20260509025506 72 132 0.9 5.2 0.00 0.66 0.66 78 1010.7
20260509024506 72 163 0.0 0.9 0.00 0.66 0.66 78 1010.4
20260509024006 72 163 0.0 1.7 0.00 0.66 0.66 78 1009.8
20260509023506 72 163 1.7 10.4 0.00 0.66 0.66 78 1009.6
20260509022506 72 176 4.3 10.4 0.00 0.66 0.66 78 1009.3
20260509022006 72 169 6.1 13.0 0.00 0.66 0.66 78 1009.2
20260509021506 72 179 5.2 10.4 0.00 0.66 0.66 78 1009.2
20260509021006 72 173 4.3 8.7 0.00 0.66 0.66 77 1009.3
20260509020506 72 176 4.3 7.8 0.00 0.66 0.66 77 1009.3
20260509020006 72 179 5.2 11.3 0.00 0.66 0.66 77 1009.1
20260509015505 72 167 6.1 11.3 0.00 0.66 0.66 76 1009.2
20260509015006 72 169 6.1 11.3 0.00 0.66 0.66 76 1009.2
20260509014506 72 174 5.2 10.4 0.00 0.66 0.66 76 1009.0
20260509014006 72 170 4.3 7.0 0.00 0.66 0.66 76 1009.1
20260509013506 72 173 3.5 7.0 0.00 0.66 0.66 76 1009.2
20260509013006 72 177 0.9 5.2 0.00 0.66 0.66 76 1009.1
20260509012505 73 169 2.6 7.0 0.00 0.66 0.66 76 1009.2
20260509012006 73 164 3.5 7.0 0.00 0.66 0.66 75 1009.2
20260509011006 73 177 4.3 7.0 0.00 0.66 0.66 75 1009.2
20260509010506 73 182 1.7 6.1 0.00 0.66 0.66 74 1009.1
20260509010006 73 182 2.6 7.0 0.00 0.66 0.66 74 1009.0
20260509005506 73 159 1.7 7.0 0.00 0.66 0.66 73 1009.0
20260509004505 74 156 6.1 10.4 0.00 0.66 0.66 73 1008.7
20260509004006 74 166 4.3 10.4 0.00 0.66 0.66 73 1008.7
20260509003505 74 178 7.0 11.3 0.00 0.66 0.66 72 1008.6
20260509002506 74 159 7.8 11.3 0.00 0.66 0.66 71 1008.6
20260509001506 74 187 3.5 11.3 0.00 0.66 0.66 71 1008.6
20260509001005 74 149 7.0 11.3 0.00 0.66 0.66 71 1008.6
20260509000505 75 178 4.3 12.2 0.00 0.66 0.66 70 1008.6
20260509000005 75 160 7.8 13.0 0.00 0.66 0.66 70 1008.7
20260508235006 75 169 7.8 13.0 0.00 0.66 0.66 70 1008.9
20260508234506 75 173 4.3 10.4 0.00 0.66 0.66 70 1009.0
20260508234006 75 176 6.1 10.4 0.00 0.66 0.66 70 1009.0
20260508233006 75 174 4.3 13.0 0.00 0.66 0.66 69 1009.0
20260508232505 75 188 8.7 11.3 0.00 0.66 0.66 68 1009.1
20260508232006 75 176 6.1 11.3 0.00 0.66 0.66 68 1009.1
20260508231505 76 187 5.2 8.7 0.00 0.66 0.66 68 1009.1
20260508231006 76 174 6.1 11.3 0.00 0.66 0.66 67 1009.1
20260508230006 76 188 4.3 10.4 0.00 0.66 0.66 68 1009.2
20260508225505 76 187 5.2 8.7 0.00 0.66 0.66 67 1009.2
20260508224505 76 175 4.3 8.7 0.00 0.66 0.66 67 1009.3
20260508223505 76 182 6.1 11.3 0.00 0.66 0.66 66 1009.2
20260508223005 77 175 4.3 12.2 0.00 0.66 0.66 66 1009.2
20260508222506 77 170 7.8 11.3 0.00 0.66 0.66 66 1009.2
20260508222005 77 187 6.1 10.4 0.00 0.66 0.66 65 1009.1
20260508221505 78 169 6.1 10.4 0.00 0.66 0.66 64 1009.0
20260508220505 78 176 6.1 11.3 0.00 0.66 0.66 65 1009.0
20260508220005 78 187 3.5 8.7 0.00 0.66 0.66 64 1009.1
20260508215506 77 171 2.6 7.8 0.00 0.66 0.66 65 1009.0
20260508215005 78 134 7.8 12.2 0.00 0.66 0.66 64 1009.0
20260508214006 78 166 6.1 14.8 0.00 0.66 0.66 64 1009.0
20260508213505 78 145 7.8 11.3 0.00 0.66 0.66 63 1009.1
20260508213006 78 171 7.8 13.0 0.00 0.66 0.66 62 1009.0
20260508211505 78 171 6.1 13.0 0.00 0.66 0.66 63 1009.2
20260508211005 77 144 7.0 11.3 0.00 0.66 0.66 62 1009.7
20260508210505 78 166 4.3 11.3 0.00 0.66 0.66 62 1009.9
20260508210005 78 183 7.0 11.3 0.00 0.66 0.66 63 1010.0
20260508205505 77 195 4.3 7.8 0.00 0.66 0.66 63 1010.1
20260508205005 76 233 3.5 8.7 0.00 0.66 0.66 65 1010.4
20260508204505 75 184 1.7 11.3 0.00 0.66 0.66 66 1010.6
20260508204006 75 182 3.5 10.4 0.00 0.66 0.66 66 1010.9
20260508203006 76 192 5.2 11.3 0.00 0.66 0.66 64 1011.0
20260508202505 76 193 4.3 11.3 0.00 0.66 0.66 64 1011.0
20260508202005 76 206 2.6 7.0 0.00 0.66 0.66 65 1010.9
20260508201505 76 195 2.6 7.8 0.00 0.66 0.66 64 1010.9
20260508201005 76 200 2.6 7.0 0.00 0.66 0.66 64 1011.1
20260508200505 77 191 3.5 11.3 0.00 0.66 0.66 63 1011.1
20260508195505 77 209 3.5 8.7 0.00 0.66 0.66 62 1011.1
20260508195006 77 188 3.5 7.8 0.00 0.66 0.66 62 1011.2
20260508194505 77 186 5.2 11.3 0.00 0.66 0.66 61 1011.2
20260508194005 78 181 5.2 11.3 0.00 0.66 0.66 62 1011.3
20260508193505 78 187 4.3 10.4 0.00 0.66 0.66 63 1011.4
20260508192505 78 188 4.3 8.7 0.00 0.66 0.66 61 1011.3
20260508191505 79 151 5.2 10.4 0.00 0.66 0.66 59 1011.5
20260508191005 78 185 4.3 12.2 0.00 0.66 0.66 58 1011.5
20260508190005 79 211 4.3 10.4 0.00 0.66 0.66 57 1011.5
20260508185505 79 182 4.3 10.4 0.00 0.66 0.66 59 1011.5
20260508185005 78 222 1.7 10.4 0.00 0.66 0.66 59 1011.4
20260508184004 78 160 7.0 11.3 0.00 0.66 0.66 58 1011.5
20260508183005 78 183 4.3 11.3 0.00 0.66 0.66 58 1011.8
20260508182505 78 229 2.6 6.1 0.00 0.66 0.66 58 1011.8
20260508180505 78 191 4.3 7.8 0.00 0.66 0.66 59 1012.2
20260508175505 77 188 2.6 7.0 0.00 0.66 0.66 60 1012.4
20260508175005 77 158 6.1 11.3 0.00 0.66 0.66 60 1012.4
20260508174505 76 185 6.1 11.3 0.00 0.66 0.66 61 1012.3
20260508174005 76 159 5.2 7.8 0.00 0.66 0.66 61 1012.4
20260508173505 75 107 2.6 11.3 0.00 0.66 0.66 60 1012.5
20260508173005 76 183 4.3 7.0 0.00 0.66 0.66 60 1012.5
20260508172505 75 154 3.5 8.7 0.00 0.66 0.66 60 1012.8
20260508172005 75 139 4.3 11.3 0.00 0.66 0.66 63 1013.0
20260508171004 74 186 4.3 6.1 0.00 0.66 0.66 62 1013.5
20260508170004 74 150 4.3 8.7 0.00 0.66 0.66 61 1013.6
20260508165505 74 158 4.3 11.3 0.00 0.66 0.66 62 1013.7
20260508165005 74 200 2.6 7.0 0.00 0.66 0.66 63 1013.9
20260508164005 73 200 5.2 8.7 0.00 0.66 0.66 62 1014.0
20260508163505 71 171 5.2 7.0 0.00 0.66 0.66 64 1014.0
20260508162505 72 215 4.3 7.8 0.00 0.66 0.66 65 1014.2
20260508162005 71 210 4.3 8.7 0.00 0.66 0.66 66 1014.3
20260508161504 69 188 1.7 7.0 0.00 0.66 0.66 69 1014.3
20260508161005 69 171 5.2 10.4 0.00 0.66 0.66 68 1014.3
20260508160505 68 167 4.3 8.7 0.00 0.66 0.66 69 1014.3
20260508160004 68 186 6.1 11.3 0.00 0.66 0.66 69 1014.4
20260508155505 68 175 7.8 11.3 0.00 0.66 0.66 68 1014.4
20260508155005 68 189 4.3 11.3 0.00 0.66 0.66 70 1014.5
20260508154504 68 168 4.3 11.3 0.00 0.66 0.66 70 1014.7
20260508154005 68 149 2.6 6.1 0.00 0.66 0.66 70 1014.8
20260508153505 68 167 5.2 8.7 0.00 0.66 0.66 69 1014.7
20260508152004 68 179 4.3 8.7 0.00 0.66 0.66 72 1014.7
20260508151504 67 178 4.3 7.0 0.00 0.66 0.66 72 1014.8
20260508150504 67 158 3.5 7.0 0.00 0.66 0.66 74 1014.7
20260508150005 67 176 3.5 7.8 0.00 0.66 0.66 74 1014.8
20260508145504 67 184 1.7 4.3 0.00 0.66 0.66 74 1014.8
20260508145004 67 172 4.3 7.0 0.00 0.66 0.66 75 1014.9
20260508144004 65 179 2.6 7.8 0.00 0.66 0.66 78 1014.8
20260508143504 65 181 0.9 6.1 0.00 0.66 0.66 79 1014.9
20260508143004 65 160 1.7 8.7 0.00 0.66 0.66 80 1014.9
20260508142504 65 167 4.3 7.8 0.00 0.66 0.66 81 1014.9
20260508142005 64 174 1.7 7.8 0.01 0.66 0.66 83 1014.9
20260508141505 63 145 0.9 2.6 0.01 0.66 0.66 84 1015.0
20260508141005 64 153 0.9 5.2 0.01 0.66 0.66 83 1015.1
20260508140505 63 162 3.5 8.7 0.01 0.66 0.66 85 1015.1
20260508140005 63 161 4.3 6.1 0.01 0.66 0.66 84 1015.1
20260508135005 63 103 0.9 4.3 0.03 0.66 0.66 87 1014.9
20260508134504 62 162 0.9 1.7 0.03 0.66 0.66 88 1015.0
20260508134005 62 162 1.7 6.1 0.06 0.66 0.66 88 1014.9
20260508133504 61 163 1.7 5.2 0.07 0.66 0.66 89 1014.8
20260508133005 61 161 2.6 4.3 0.07 0.66 0.66 90 1015.0
20260508132504 61 155 1.7 6.1 0.07 0.66 0.66 90 1014.9
20260508132005 61 173 1.7 6.1 0.06 0.64 0.64 91 1015.0
20260508131504 60 176 2.6 4.3 0.07 0.64 0.64 92 1015.0
20260508131004 60 145 0.0 0.0 0.07 0.64 0.64 92 1014.9
20260508130504 60 145 0.0 0.0 0.07 0.64 0.64 92 1015.1
20260508130004 60 145 0.0 0.0 0.07 0.64 0.64 91 1014.9
20260508125505 60 145 0.0 1.7 0.06 0.63 0.63 91 1015.5
20260508125004 60 179 0.0 0.9 0.05 0.62 0.62 91 1015.5
20260508124504 60 179 0.9 2.6 0.05 0.62 0.62 91 1015.0
20260508124004 60 179 0.9 2.6 0.02 0.60 0.60 91 1015.0
20260508123504 60 179 0.9 2.6 0.01 0.59 0.59 90 1015.6
20260508123004 60 180 0.9 1.7 0.01 0.59 0.59 90 1015.6
20260508122004 60 179 0.0 0.9 0.01 0.59 0.59 90 1015.3
20260508121504 60 197 0.9 6.1 0.00 0.57 0.57 90 1015.3
20260508121004 60 178 4.3 6.1 0.05 0.57 0.57 90 1015.1
20260508120504 60 184 4.3 7.8 0.10 0.57 0.57 91 1015.1
20260508115504 60 175 6.1 8.7 0.17 0.57 0.57 92 1015.1
20260508115004 60 172 4.3 6.1 0.20 0.57 0.57 92 1015.4
20260508114504 60 172 2.6 6.1 0.20 0.57 0.57 92 1015.0
20260508114004 60 138 4.3 6.1 0.20 0.57 0.57 92 1014.8
20260508113004 60 170 1.7 6.1 0.20 0.57 0.57 93 1014.8
20260508112504 60 165 1.7 4.3 0.20 0.57 0.57 93 1015.1
20260508112004 60 165 2.6 4.3 0.21 0.57 0.57 92 1014.9
20260508111004 60 119 0.9 4.3 0.30 0.53 0.53 92 1014.7
20260508110504 60 133 1.7 4.3 0.26 0.47 0.47 92 1015.1
20260508110004 60 157 0.0 0.0 0.21 0.41 0.41 92 1015.5
20260508105504 61 264 0.0 0.0 0.20 0.40 0.40 92 1016.0
20260508105004 60 264 0.0 2.6 0.17 0.38 0.38 92 1015.7
20260508104004 60 140 0.9 4.3 0.17 0.38 0.38 92 1015.0
20260508103503 60 16 0.9 2.6 0.17 0.38 0.38 92 1015.6
20260508103004 60 138 0.0 1.7 0.17 0.38 0.38 92 1014.9
20260508102504 60 138 0.9 2.6 0.17 0.38 0.38 91 1014.4
20260508102004 60 138 0.9 4.3 0.16 0.37 0.37 91 1014.5
20260508101004 60 201 1.7 7.0 0.02 0.23 0.23 91 1014.2
20260508100504 60 186 2.6 7.0 0.01 0.21 0.21 91 1014.0
20260508100004 60 169 2.6 6.1 0.01 0.21 0.21 91 1014.0
20260508095504 60 204 1.7 4.3 0.01 0.21 0.21 92 1014.1
20260508095003 60 342 1.7 2.6 0.01 0.21 0.21 92 1014.2
20260508094004 60 342 0.0 0.9 0.01 0.21 0.21 91 1014.4
20260508093504 60 342 0.0 0.9 0.01 0.21 0.21 91 1014.2
20260508093004 60 342 0.0 1.7 0.01 0.21 0.21 91 1014.3
20260508092504 60 342 0.0 0.9 0.01 0.21 0.21 91 1014.5
20260508091504 60 342 0.9 2.6 0.03 0.21 0.21 91 1014.3
20260508091004 60 342 1.7 4.3 0.03 0.21 0.21 91 1014.4
20260508090004 60 342 0.0 0.0 0.05 0.20 0.20 90 1014.5
20260508085504 60 342 0.0 0.9 0.13 0.20 0.20 90 1014.8
20260508085004 60 342 0.0 0.0 0.20 0.20 0.20 90 1014.9
20260508084504 60 342 0.0 0.9 0.20 0.20 0.20 90 1015.3
20260508084004 60 342 0.9 4.3 0.20 0.20 0.20 89 1015.3
20260508083504 60 112 0.0 1.7 0.20 0.20 0.20 89 1014.6
20260508083004 60 112 2.6 7.8 0.20 0.20 0.20 88 1014.0
20260508082504 60 131 4.3 8.7 0.20 0.20 0.20 89 1014.5
20260508082004 60 132 2.6 5.2 0.18 0.18 0.18 89 1015.1
20260508081504 60 116 0.0 0.0 0.17 0.17 0.17 88 1015.5
20260508081004 60 116 0.0 0.0 0.17 0.17 0.17 87 1015.3
20260508080503 61 116 0.0 0.0 0.17 0.17 0.17 86 1015.5
20260508080004 62 116 0.9 2.6 0.15 0.15 0.15 83 1015.5
20260508075506 63 106 0.9 4.3 0.07 0.07 0.07 77 1016.2
20260508074507 63 209 0.0 0.0 0.00 0.00 0.00 76 1016.2
20260508074006 63 159 0.0 0.0 0.00 0.00 0.00 76 1016.3
20260508073507 62 159 0.0 0.0 0.00 0.00 0.00 76 1016.0
20260508073006 62 159 0.0 0.0 0.00 0.00 0.00 76 1015.6
20260508071006 62 159 0.9 0.9 0.00 0.00 0.00 75 1015.8
20260508070006 62 159 0.0 0.0 0.00 0.00 0.00 75 1015.7
20260508065006 62 159 0.9 1.7 0.00 0.00 0.00 75 1015.8
20260508064506 62 159 0.0 0.0 0.00 0.00 0.00 74 1016.0
20260508064006 62 159 0.0 0.0 0.00 0.00 0.00 74 1016.3
20260508063506 63 159 0.0 0.0 0.00 0.00 0.00 74 1016.3
20260508063006 63 159 0.0 0.0 0.00 0.00 0.00 73 1016.4
20260508062506 63 159 0.0 4.3 0.00 0.00 0.00 73 1016.4
20260508062006 63 159 2.6 5.2 0.00 0.00 0.00 73 1016.3
20260508061506 62 159 1.7 5.2 0.00 0.00 0.00 74 1016.4
20260508060507 62 159 0.0 0.0 0.00 0.00 0.00 74 1016.3
20260508060007 62 159 0.0 0.0 0.00 0.00 0.00 75 1016.3
20260508055006 62 159 0.0 0.0 0.00 0.00 0.00 75 1016.2